Tracking 29892 objects as of 21-Nov-2024
HD Live streaming from Space Station
objects crossing your sky now

COSMOS 1823 DEB

Track COSMOS 1823 DEB now!
10-day predictions


NORAD ID: 39825
Int'l Code: 1987-020EZ
Perigee: 1,480.5 km
Apogee: 1,522.9 km
Inclination: 73.6 °
Period: 115.9 minutes
Semi major axis: 7872 km
RCS: Unknown
Launch date: February 20, 1987
Source: Commonwealth of Independent States (former USSR) (CIS)
Launch site: PLESETSK MISSILE AND SPACE COMPLEX (PKMTR)

Note: This is SATELLITE DEBRIS
Your satellite tracking list
Your tracking list is empty




NASA's NSSDC Master Catalog

Two Line Element Set (TLE):
1 39825U 87020EZ  24303.67143672  .00000103  00000-0  87189-3 0  9992
2 39825  73.6010  87.5038 0026927 340.3483  32.5280 12.42856351914762
Source of the keplerian elements: AFSPC